Regional Weather Roundup
Issued by NWS

Home | Current Version | Previous Version | Graphics & Text | Print | Product List | Glossary On
Versions: 1 2 3 4 5 6 7 8 9 10 11 12 13 14 15 16 17 18 19 20 21 22 23 24 25 26 27 28 29 30 31 32 33 34 35 36 37 38 39 40 41 42 43 44 45 46 47 48 49 50
000
ASUS45 KBOI 170110
RWRID
WEATHER ROUNDUP FOR IDAHO
NATIONAL WEATHER SERVICE BOISE ID
700 PM MDT TUE SEP 16 2014

NOTE: "FAIR" INDICATES FEW OR NO CLOUDS BELOW 12000 FEET
WITH NO SIGNIFICANT WEATHER AND/OR OBSTRUCTIONS TO VISIBILITY

IDZ012-014-170200-
SOUTHWEST IDAHO


CITY           SKY/WX    TMP DP  RH WIND       PRES   REMARKS
BOISE          CLEAR     91  41  17 N7        29.82F
CALDWELL       CLEAR     90  46  22 NE6       29.82F
MOUNTAIN HOME  PTCLDY    92  37  14 N2        29.82F
$$

IDZ016-017-170200-
SOUTHCENTRAL IDAHO


CITY           SKY/WX    TMP DP  RH WIND       PRES   REMARKS
BURLEY         CLEAR     83  45  26 W3        29.92F
JEROME         CLEAR     84  46  26 E5        29.92F
TWIN FALLS     PTCLDY    85  48  27 CALM      29.93F
$$

IDZ019>023-170200-
SOUTHEAST IDAHO


CITY           SKY/WX    TMP DP  RH WIND       PRES   REMARKS
IDAHO FALLS    CLEAR     84  41  21 NE3       29.99F
POCATELLO      PTCLDY    84  39  20 S12       29.97S
REXBURG        CLEAR     79  40  24 NW3       30.00F
$$

IDZ006-010-011-018-031-032-170200-
CENTRAL IDAHO MOUNTAINS


CITY           SKY/WX    TMP DP  RH WIND       PRES   REMARKS
MCCALL         CLEAR     77  42  28 S9        29.99F
HAILEY         PTCLDY    81  36  19 SW12      30.03S
STANLEY          N/A     76  38  25 W6        30.10S
SALMON         PTCLDY    70  48  46 CALM      29.95F
CHALLIS        MOCLDY    73  48  41 N7        29.99S
$$

IDZ002-004-006-007-026-170200-
NORTHERN IDAHO


CITY           SKY/WX    TMP DP  RH WIND       PRES   REMARKS
LEWISTON       PTCLDY    86  35  16 NW8       29.78S
LOWELL           N/A     72  59  63 CALM      29.77S
COEUR D`ALENE  MOCLDY    79  45  29 NE8       29.83S
MULLAN PASS    MOCLDY    66  37  34 SW3       30.07F
$$


USA.gov is the U.S. government's official web portal to all federal, state and local government web resources and services.